Regional Weather Roundup
Issued by NWS

Home | Current Version | Previous Version | Graphics & Text | Print | Product List | Glossary On
Versions: 1 2 3 4 5 6 7 8 9 10 11 12 13 14 15 16 17 18 19 20 21 22 23 24 25 26 27 28 29 30 31 32 33 34 35 36 37 38 39 40 41 42 43 44 45 46 47 48 49 50
764
ASUS43 KDTX 250201
RWRMI
MICHIGAN HOURLY REGIONAL WEATHER ROUNDUP
NATIONAL WEATHER SERVICE DETROIT/PONTIAC MI
1000 PM EDT MON APR 24 2017

NOTE: "FAIR" INDICATES FEW OR NO CLOUDS BELOW 12,000 FEET WITH NO
SIGNIFICANT WEATHER AND/OR OBSTRUCTION TO VISIBILITY.

MIZ047>049-052>055-059>063-066>070-074>076-081>083-250300-
SOUTHEAST LOWER MICHIGAN

CITY           SKY/WX    TMP DP  RH WIND       PRES   REMARKS
ADRIAN         CLOUDY    53  41  63 E15G23    29.89F
ALMA           CLOUDY    48  44  85 NE7       29.91S
ANN ARBOR      CLOUDY    57  37  47 E9        29.90F
BAD AXE        CLOUDY    47  38  71 E3        29.96S
CARO           CLOUDY    53  42  65 E6        29.93S
DETROIT CITY   CLOUDY    56  42  59 E14       29.93S
DETROIT        CLOUDY    58  39  49 E12G21    29.93S
FLINT          CLOUDY    56  39  53 E8        29.91R
GROSSE ILE     CLOUDY    56  39  53 E15G22    29.91S
HILLSDALE      CLOUDY    54  34  47 E16G28    29.86F
HOWELL         CLOUDY    61  25  25 E12G20    29.89S

CITY           SKY/WX    TMP DP  RH WIND       PRES   REMARKS
JACKSON        CLOUDY    59  35  40 SE15G22   29.87F
LAMBERTVILLE   CLOUDY    52  45  75 E9        29.90S
LANSING        CLOUDY    57  31  37 E8        29.89S
LAPEER         FAIR      55  41  59 E6        29.93S
MASON          PTCLDY    60  36  40 E3        29.89R
MONROE         PTCLDY    55  41  58 E16G25    29.90F
MT. CLEMENS    MOCLDY    53  47  79 E8        29.92S
PONTIAC        CLOUDY    61  34  36 E14G21    29.90F
PORT HOPE        N/A     46  41  82 SE10      29.96S
PORT HURON     CLOUDY    48  39  71 E7        29.96S
TRI CITIES     CLOUDY    48  46  93 N9        29.92F
MIDLAND        FAIR      48  40  75 NE6       29.92S
TROY           CLOUDY    61  35  38 E12G20    29.94F
SAGINAW HB     CLOUDY    50  45  81 NE3       29.92S
$$
MIZ043>046-050>051-056>058-064>065-071>073-077>080-250300-
SOUTHWEST LOWER MICHIGAN

CITY           SKY/WX    TMP DP  RH WIND       PRES   REMARKS
BATTLE CREEK   PTCLDY    62  30  29 E7        29.87S
BENTON HARBOR  CLOUDY    61  30  31 E8        29.81S
BIG RAPIDS     CLOUDY    56  41  57 E7        29.87S
COLDWATER      CLEAR     57  32  38 E10G16    29.86R
FREMONT        FAIR      61  27  27 E8        29.83F
HOLLAND        CLOUDY    60  35  39 SE9       29.83S
GRAND RAPIDS   CLOUDY    58  37  45 E10       29.85F
IONIA          FAIR      58  33  38 E9        29.87S
KALAMAZOO      CLOUDY    63  28  26 SE7       29.86S
LUDINGTON      PTCLDY    47  38  72 CALM      29.82S
MARSHALL       CLOUDY    59  36  42 E9        29.87R
MOUNT PLEASANT PTCLDY    50  40  68 E6        29.91R
MUSKEGON       MOCLDY    60  31  33 E9        29.82F
SOUTH HAVEN    PTCLDY    63  31  30 SE5       29.82S
$$
MIZ016>042-250300-
NORTHERN LOWER MICHIGAN

CITY           SKY/WX    TMP DP  RH WIND       PRES   REMARKS
ALPENA         CLOUDY    42  34  73 SE6       29.99S
BEAVER ISLAND  CLOUDY    43  36  77 E10       29.88F
BELLAIRE       CLOUDY    60  37  41 SE8G16    29.89R
CADILLAC       CLOUDY    54  40  58 SE10      29.88S
CHARLEVOIX     MOCLDY    54  38  55 E10       29.91S
FRANKFORT      CLEAR     47  34  59 CALM      29.84F
GAYLORD        PTCLDY    50  34  54 CALM      29.93R
GRAYLING       CLOUDY    49  34  54 SE8       29.94S
HARBOR SPRINGS PTCLDY    47  35  64 E16       29.92S
HOUGHTON LAKE  CLOUDY    50  37  61 E12       29.92S
MANISTEE       CLOUDY    47  36  65 E5        29.83S
OSCODA         CLOUDY    42  35  75 NE5       29.97F
PELLSTON       PTCLDY    47  33  58 SE12      29.94S
ROGERS CITY    CLOUDY    43  32  65 SE9       30.00S
TRAVERSE CITY  MOCLDY    62  38  40 SE8       29.85R
$$
MIZ007>008-015-250300-
EASTERN UPPER MICHIGAN

CITY           SKY/WX    TMP DP  RH WIND       PRES   REMARKS
KINROSS        MOCLDY    43  32  65 SE15      29.96F
MACKINAC ISLAN CLOUDY    42  31  65 E16G28    29.95F
NEWBERRY       CLOUDY    43  33  67 E16G24    29.90F
S. S. MARIE    PTCLDY    48  31  51 SE10      29.96F
MUNISING         N/A     47  34  60 S10G18    29.84S
$$
MIZ004>006-011>014-085-250300-
CENTRAL UPPER MICHIGAN

CITY           SKY/WX    TMP DP  RH WIND       PRES   REMARKS
MANISTIQUE     CLOUDY    43  34  70 E13G22    29.87S
ESCANABA       PTCLDY    43  37  79 E7        29.85F
MENOMINEE      CLOUDY    44  38  79 E8        29.84S
SAWYER-GWINN   CLEAR     45  36  70 S9        29.84S
$$
MIZ001>003-009>011-084-250300-
WESTERN UPPER MICHIGAN

CITY           SKY/WX    TMP DP  RH WIND       PRES   REMARKS
IRON MOUNTAIN  CLOUDY    46  34  62 VRB5      29.80S
HOUGHTON       CLOUDY    42  34  73 E10       29.74F
COPPER HARBOR    N/A     47  36  65 SW13G31   29.76S
IRONWOOD       CLOUDY    60  35  39 SE9       29.68S
$$

ABBREVIATIONS USED IN REMARKS
   TC - TEMPERATURE IN CELSIUS
  WCI - WIND CHILL INDEX
   HX - HEAT INDEX
  VSB - VISIBILITY





USA.gov is the U.S. government's official web portal to all federal, state and local government web resources and services.